Location: Ferma
(41.9500°N, 44.5167°E)
Time: 19:32:03
(UTC+00:00)

SL-16 R/B - Pass Details

Date: 24 October 2021
Orbit: 842 x 846 km, 71.0° (Epoch: 02 December)

Event Time Altitude Azimuth Distance (km) Brightness Sun altitude
Rises 16:10:07 0° 233° (SW) 3,390 6.1 -23.6°
Reaches altitude 10° 16:12:51 10° 244° (WSW) 2,460 5.4 -24.1°
Maximum altitude 16:17:45 30° 305° (NW) 1,482 4.0 -25.0°
Drops below altitude 10° 16:22:42 10° 5° (N) 2,474 4.6 -25.9°
Sets 16:25:28 0° 17° (NNE) 3,413 5.3 -26.4°
